Aérodrome :
LOGIN :

S'inscrire | Disclaimer

   EN    FR    IT 

 










Légende :    VFR   VFR Marginal   IFR   IFR Intensif   IFR Très Intensif
Visi : 
Plafond : 
>= 8 km
>= 3000ft
5 à 8 km
1000 à 3000 ft
1500m à 5 km
500 à 1000 ft
800 à 1500m
200 à 500 ft
< 800m
< 200 ft
Symboles :   Orages  Brouillard  Fortes neiges  Fortes précipitations  Vent > 20 kt
SIGMETs :   Divers  Orages  Givrage  Turbulence  Onde Orograph.  Cendres Volcan.







- Altitude de l'aérodrome : 782 ft
- Code IATA : BGY


LIME - Orio al Serio International - Bergamo

DERNIER METAR :
  • 221550Z VRB02KT 3500 BR NSC 08/05 Q1019 NOSIG

METARs EXPIRÉS :
  • 221520Z 18004KT 160V240 3500 BR NSC 09/05 Q1019 NOSIG
  • 221450Z 18003KT 4000 BR NSC 09/05 Q1019 NOSIG
  • 221420Z 19003KT 150V300 5000 BR NSC 10/05 Q1019 NOSIG
  • 221350Z 18005KT 150V220 5000 BR NSC 10/05 Q1019 NOSIG
  • 221320Z VRB01KT 5000 BR NSC 11/05 Q1019 NOSIG

TAF TAF LIME
Valide du 22 à 12h jusqu'au 23 à 12h UTC


221100Z 2212/2312 VRB05KT 7000 BKN030
TEMPO 2302/2312 DZ
Pas de NOTAMs connus pour ce terrain.



MET'MAP, la Météo Aéronautique d'un coup d'oeil ! - Copyright ORBIFLY Décembre 2007 - Disclaimer

ORBIFLY MET'MAP TEAM :

Programmation & Développement : Alexandra Zaïnal
Conception & Développement : Baudouin d'Aumeries
Co-Programmation & Développement : Marc-Olivier Méhu
Soutien technique & logistique : Manuel Goepfert

Contact : metmap@orbifly.com




SOURCES & CREDITS :

   NOAA